Weather History for Rhodes, Greece

Change the Weather History Date:

Wednesday, October 10, 2012

  Actual Average Record
Temperature  
Mean Temperature 69 °F -  
Max Temperature 74 °F 73 °F 87 °F (1998)
Min Temperature 64 °F 60 °F 57 °F (2010)
Cooling Degree Days 4    
Growing Degree Days 19 (Base 50)    
Moisture  
Dew Point 65 °F    
Average Humidity 82    
Maximum Humidity 94    
Minimum Humidity 61    
Precipitation  
Precipitation 7.87 in 0.09 in - ()
Sea Level Pressure  
Sea Level Pressure 29.78 in    
Wind  
Wind Speed 2 mph ()    
Max Wind Speed 8 mph    
Max Gust Speed -    
Visibility 5.9 miles    
Events Rain , Thunderstorm    
Averages and records for this station are not official NWS values.
T = Trace of Precipitation, MM = Missing Value Source: Averaged Metar Reports

Daily Weather History Graph

Daily Weather History Graph

Search for Another Location

Airport:

Trip Planner

Search our weather history database for the weather conditions in past years. The results will help you decide how hot, cold, wet, or windy it might be!

Date:

Astronomy

Oct. 10, 2012 Rise Set
Actual Time 7:10 AM EEST 6:38 PM EEST
Civil Twilight 6:44 AM EEST 7:03 PM EEST
Nautical Twilight 6:14 AM EEST 7:33 PM EEST
Astronomical Twilight 5:44 AM EEST 8:03 PM EEST
Moon 1:36 AM EEST (10/10) 3:21 PM EEST (10/10)
Length of Visible Light 12h 19m
Length of Day
11h 27m
Waning Crescent, 30% of the Moon is Illuminated
Oct 10
Waning Crescent
Oct 15
New
Oct 22
First Quarter
Oct 29
Full
Nov 7
Last Quarter

Hourly Weather History & Observations

Time (EEST) Temp. Dew Point Humidity Pressure Visibility Wind Dir Wind Speed Gust Speed Precip Events Conditions
12:20 AM 69.8 °F 64.4 °F 83% 29.80 in 6.2 mi Calm Calm - N/A   Scattered Clouds
12:50 AM 69.8 °F 64.4 °F 83% 29.80 in 6.2 mi Calm Calm - N/A   Scattered Clouds
1:20 AM 69.8 °F 64.4 °F 83% 29.80 in 6.2 mi Calm Calm - N/A   Scattered Clouds
1:50 AM 69.8 °F 64.4 °F 83% 29.77 in 6.2 mi Calm Calm - N/A   Scattered Clouds
2:20 AM 69.8 °F 64.4 °F 83% 29.77 in 6.2 mi Calm Calm - N/A   Scattered Clouds
2:50 AM 68.0 °F 64.4 °F 88% 29.77 in 6.2 mi Calm Calm - N/A   Scattered Clouds
3:00 AM 69 °F 64 °F 77% 29.79 in 6 mi Calm Calm - -   Scattered Clouds
3:20 AM 68.0 °F 64.4 °F 88% 29.77 in 6.2 mi Calm Calm - N/A   Scattered Clouds
3:50 AM 69.8 °F 64.4 °F 83% 29.77 in 6.2 mi Calm Calm - N/A   Scattered Clouds
4:20 AM 69.8 °F 64.4 °F 83% 29.77 in 6.2 mi Calm Calm - N/A   Scattered Clouds
4:50 AM 68.0 °F 62.6 °F 83% 29.74 in 6.2 mi Calm Calm - N/A   Scattered Clouds
5:20 AM 68.0 °F 62.6 °F 83% 29.74 in 6.2 mi Calm Calm - N/A   Scattered Clouds
5:50 AM 68.0 °F 62.6 °F 83% 29.74 in 6.2 mi Calm Calm - N/A   Scattered Clouds
6:20 AM 68.0 °F 62.6 °F 83% 29.74 in 6.2 mi Calm Calm - N/A   Scattered Clouds
6:50 AM 71.6 °F 68.0 °F 88% 29.74 in 6.2 mi Calm Calm - N/A   Mostly Cloudy
7:20 AM 71.6 °F 68.0 °F 88% 29.74 in 6.2 mi Calm Calm - N/A   Mostly Cloudy
7:50 AM 71.6 °F 68.0 °F 88% 29.77 in 6.2 mi Variable 2.3 mph - N/A   Mostly Cloudy
8:20 AM 71.6 °F 68.0 °F 88% 29.77 in 6.2 mi Calm Calm - N/A   Mostly Cloudy
8:50 AM 73.4 °F 68.0 °F 83% 29.77 in 6.2 mi Variable 2.3 mph - N/A   Mostly Cloudy
9:00 AM 73 °F 67 °F 78% 29.77 in 6 mi 2.3 mph - -   Partly Cloudy
9:20 AM 73.4 °F 68.0 °F 83% 29.77 in 6.2 mi Variable 2.3 mph - N/A Thunderstorm Mostly Cloudy
9:50 AM 73.4 °F 68.0 °F 83% 29.77 in 6.2 mi Variable 5.8 mph - N/A Thunderstorm Mostly Cloudy
10:20 AM 73.4 °F 68.0 °F 83% 29.77 in 6.2 mi Variable 5.8 mph - N/A Thunderstorm Mostly Cloudy
10:50 AM 73.4 °F 59.0 °F 61% 29.80 in 6.2 mi Variable 3.5 mph - N/A   Mostly Cloudy
11:20 AM 73.4 °F 59.0 °F 61% 29.80 in 6.2 mi Variable 3.5 mph - N/A   Mostly Cloudy
11:50 AM 75.2 °F 62.6 °F 65% 29.80 in 6.2 mi Variable 3.5 mph - N/A   Mostly Cloudy
12:20 PM 75.2 °F 62.6 °F 65% 29.80 in 1.9 mi Variable 3.5 mph - N/A Rain Rain
12:50 PM 75.2 °F 62.6 °F 65% 29.80 in 1.9 mi Variable 6.9 mph - N/A Rain Rain
1:20 PM 75.2 °F 62.6 °F 65% 29.80 in 4.3 mi Variable 4.6 mph - N/A Rain Rain
1:50 PM 69.8 °F 62.6 °F 78% 29.80 in 5.0 mi SE 4.6 mph - N/A Rain Light Rain
2:20 PM 69.8 °F 62.6 °F 78% 29.80 in 5.0 mi ESE 8.1 mph - N/A   Mostly Cloudy
2:50 PM 71.6 °F 66.2 °F 83% 29.80 in 5.0 mi East 5.8 mph - N/A   Mostly Cloudy
3:00 PM 72 °F 67 °F 79% 29.80 in 5 mi East 5.8 mph - -   Mist
3:20 PM 71.6 °F 66.2 °F 83% 29.80 in 5.0 mi East 5.8 mph - N/A   Mostly Cloudy
3:50 PM 71.6 °F 66.2 °F 83% 29.77 in 6.2 mi East 6.9 mph - N/A   Mostly Cloudy
4:20 PM 71.6 °F 66.2 °F 83% 29.77 in 6.2 mi ENE 8.1 mph - N/A   Mostly Cloudy
4:50 PM 71.6 °F 66.2 °F 83% 29.77 in 6.2 mi East 8.1 mph - N/A   Mostly Cloudy
5:20 PM 73.4 °F 68.0 °F 83% 29.77 in 6.2 mi ENE 5.8 mph - N/A   Scattered Clouds
5:50 PM 73.4 °F 66.2 °F 78% 29.80 in 6.2 mi East 5.8 mph - N/A   Scattered Clouds
6:20 PM 73.4 °F 66.2 °F 78% 29.80 in 6.2 mi Variable 2.3 mph - N/A   Scattered Clouds
6:50 PM 69.8 °F 66.2 °F 88% 29.77 in 6.2 mi Variable 2.3 mph - N/A   Mostly Cloudy
7:20 PM 69.8 °F 66.2 °F 88% 29.77 in 6.2 mi Calm Calm - N/A   Mostly Cloudy
7:50 PM 68.0 °F 66.2 °F 94% 29.80 in 6.2 mi Calm Calm - N/A   Mostly Cloudy
8:20 PM 68.0 °F 66.2 °F 94% 29.80 in 6.2 mi Calm Calm - N/A   Mostly Cloudy
8:50 PM 66.2 °F 62.6 °F 88% 29.80 in 6.2 mi Variable 3.5 mph - N/A   Mostly Cloudy
9:00 PM 67 °F 63 °F 82% 29.81 in 6 mi SE 3.5 mph - -   Partly Cloudy
9:20 PM 66.2 °F 62.6 °F 88% 29.80 in 6.2 mi Calm Calm - N/A   Mostly Cloudy
9:50 PM 66.2 °F 62.6 °F 88% 29.80 in 6.2 mi Variable 3.5 mph - N/A   Scattered Clouds
10:20 PM 66.2 °F 62.6 °F 88% 29.80 in 6.2 mi Variable 2.3 mph - N/A   Scattered Clouds
10:50 PM 64.4 °F 59.0 °F 83% 29.80 in 6.2 mi Variable 2.3 mph - N/A   Scattered Clouds
11:20 PM 64.4 °F 59.0 °F 83% 29.80 in 6.2 mi Variable 2.3 mph - N/A   Scattered Clouds
11:50 PM 68.0 °F 60.8 °F 78% 29.80 in 6.2 mi Variable 2.3 mph - N/A   Scattered Clouds